Regional Weather Roundup
Issued by NWS Green Bay, WI

Home | Current Version | Previous Version | Text Only | Print | Product List | Glossary On
Versions: 1 2 3 4 5 6 7 8 9 10 11 12 13 14 15 16 17 18 19 20 21 22 23 24 25 26 27 28 29 30 31 32 33 34 35 36 37 38 39 40 41 42 43 44 45 46 47 48 49 50
000
ASUS43 KGRB 260710
RWRGRB

NORTH-CENTRAL AND NORTHEAST WISCONSIN REGIONAL WEATHER ROUNDUP
NATIONAL WEATHER SERVICE GREEN BAY WI
100 AM CST FRI DEC 26 2014

WIZ005-009-010>012-018-019-260800-
NORTH CENTRAL WISCONSIN

CITY           SKY/WX    TMP DP  RH WIND       PRES   REMARKS
IRONWOOD       CLOUDY    30  30 100 CALM      29.87S
MANITOWISH WTR CLOUDY    28  28 100 CALM      29.86F FOG
ARBOR VITAE    FOG       27  26  96 CALM      29.87S VSB 1/2
EAGLE RIVER    CLOUDY    28  28 100 CALM      29.87S FOG
LAND O LAKES   CLOUDY    29  29 100 CALM      29.89R FOG
RHINELANDER    CLOUDY    28  27  96 E3        29.88R FOG
PHILLIPS       CLOUDY    28  28 100 CALM      29.87S FOG
ANTIGO         MOCLDY    26  26  98 SE6       29.87F
TOMAHAWK       CLOUDY    29  28  95 CALM      29.88F FOG
MERRILL        CLOUDY    29  28  99 NE3       29.87F FOG
$$

WIZ013-073-260800-
NORTHEAST WISCONSIN

CITY           SKY/WX    TMP DP  RH WIND       PRES   REMARKS
IRON MOUNTAIN  CLOUDY    30  29  96 CALM      29.91R FOG
MARINETTE      PTCLDY    28  27  93 CALM      29.93S
OCONTO         MOCLDY    28  28 100 CALM      29.92F
$$

WIZ017-030-035>037-045-260800-
CENTRAL WISCONSIN

CITY           SKY/WX    TMP DP  RH WIND       PRES   REMARKS
MEDFORD        CLOUDY    26  25  96 E6        29.85F FOG
WAUSAU         MOCLDY    28  26  92 E3        29.86F FOG
MOSINEE        MOCLDY    28  28 100 E3        29.88S
MARSHFIELD     MOCLDY    28  25  88 NE5       29.85F FOG
WISC RAPIDS    PTCLDY    27  24  89 CALM      29.88F FOG
STEVENS POINT  MOCLDY    26  26  99 E3        29.88F FOG
WAUPACA        MOCLDY    29  28  96 CALM      29.90F FOG
SHAWANO        PTCLDY    30  29  95 CALM      29.91F FOG
CLINTONVILLE   MOCLDY    28  28 100 CALM      29.91S FOG
$$

WIZ038-039-048-051-260800-
FOX VALLEY

CITY           SKY/WX    TMP DP  RH WIND       PRES   REMARKS
NWS GREEN BAY  PTCLDY    31  29  92 CALM      29.92F FOG
APPLETON       MOCLDY    30  30 100 SE6       29.91F FOG
OSHKOSH        PTCLDY    34  31  88 S9        29.91F
FOND DU LAC    PTCLDY    37  32  82 S13       29.91F
$$

WIZ022-050-052-260800-
EAST CENTRAL WISCONSIN

CITY           SKY/WX    TMP DP  RH WIND       PRES   REMARKS
STURGEON BAY     N/A     34  30  86 S6        29.95F
MANITOWOC      MOCLDY    29  28  96 CALM      29.94F FOG
SHEBOYGAN      MOCLDY    37  32  82 S6        29.94F
$$

LMZ563-521-522-541>543-260800-
LAKESHORE

STATION/POSITION TIME  TEMP    WIND        PRES    VSBY  WAVE
                       AIR SEA DIR/SP/G                  HT/PER
                 (UTC) (F)     (DEG/KT/KT) (MB)    (MI)  (FT/S)
SHEBOYGAN LKSHOR 0700   40 37  190/ 11/ 13 1014.8F
KEWAUNEE LKSHORE 0700   34      CALM  /  3 1013.1F
ALGOMA MARINA    0700             CALM       N/A
NORTHPORT PIER   0700   32        CALM     1014.2S
SISTER BAY LKSHO 0700          160/  8/  9   N/A
CHAMBERS ISLAND  0700   29        CALM     1014.2S
MENOMINEE LKSHOR 0700   33     170/  5/  6 1014.3F
$$



USA.gov is the U.S. government's official web portal to all federal, state and local government web resources and services.